Torna al catalogo

THORAD AGENA D DEB

AttivoLEO
NORAD 5794·DEBRIS·🇺🇸 United States

Lanciato Sep 30, 1969 da Vandenberg Space Force Base

Loading…

Prossimi Passaggi (prossime 24 ore)

TLE

AggiornatoSource: Space-Track

Epoca: Sep 13, 2026, 14:30 UTC

1  5794U 69082JW  26256.60438573  .00001779  00000-0  35187-3 0  9998
2  5794  69.9990  16.4951 0023088  46.5059 313.7996 14.63895622405334

Traccia THORAD AGENA D DEB in tempo reale con AllMySat

Download on the App Store